[[{"header":{"parameterUnit":"m.s-1","parameterCategory":1,"la1":30.2991,"la2":30.254,"lo1":-89.0895,"lo2":-89.0444,"dy":0.0017,"dx":0.0017,"nx":28,"ny":28,"refTime":"2023-07-28T03:00:00:Z","depth":0,"parameterNumber":2,"parameterNumberName":"U-component_of_WINDS"},"data":[0,0,0,0,0,0,0,0,0,0,0,0,0,0,0,0,0,0,0,0,0,0,0,0,0,0,0,0,0,0,0,0,0,0,0,0,0,0,0,0,0,0,0,0,0,0,0,0,0,0,0,0,0,0,0,0,0,0,1.4456,1.4456,0,1.4538,1.4539,1.4539,1.4558,1.4557,1.4556,1.4556,1.4638,1.4641,1.4643,0,0,0,0,0,0,0,0,0,0,0,0,0,1.4311,1.4313,1.4455,1.4456,1.4458,1.4537,1.4539,1.454,1.4558,1.4557,1.4556,1.4556,1.4637,1.464,1.4644,0,0,0,0,0,0,0,0,0,0,0,0,0,1.4381,1.4314,1.4455,1.4476,1.4479,1.4537,1.4539,1.454,1.4558,1.4557,1.4556,1.4555,1.4636,1.464,1.4644,1.4687,0,0,1.4657,1.4658,0,0,0,0,0,0,0,0,1.4377,1.4386,1.4472,1.4475,1.4478,1.4536,1.4518,1.4589,1.4558,1.4528,1.4556,1.4555,1.4605,1.4611,1.4629,1.4691,1.4694,1.4657,1.4659,1.4661,1.4662,0,0,0,0,0,0,0,1.4372,1.4383,1.4488,1.4473,1.4477,1.448,1.4489,1.4531,1.457,1.453,1.4532,1.4541,1.4606,1.4625,1.4631,1.4695,1.4657,1.466,1.4663,1.4665,1.4794,1.4795,0,0,0,0,0,0,1.4364,1.4379,1.4485,1.449,1.4424,1.4484,1.4494,1.4519,1.457,1.4577,1.4542,1.4542,1.4618,1.4626,1.4634,1.4685,1.4661,1.4665,1.4667,1.4793,1.4794,1.4795,0,0,0,0,0,0,1.4361,1.4373,1.4482,1.4435,1.4449,1.4487,1.4515,1.4521,1.4539,1.4579,1.4585,1.4554,1.4618,1.4628,1.4673,1.4689,1.4667,1.4671,1.4792,1.4793,1.4795,1.479,0,0,0,0,0,0,1.4357,1.4372,1.439,1.4435,1.4452,1.4521,1.4516,1.4523,1.4546,1.4547,1.4592,1.4598,1.4618,1.4667,1.4677,1.4694,1.4674,1.4791,1.4793,1.4794,1.4789,1.4792,1.4793,0,0,0,0,0,1.4352,1.4385,1.4391,1.4403,1.4475,1.4522,1.4531,1.4554,1.4548,1.4565,1.459,1.4597,1.4685,1.4671,1.4683,1.4701,1.479,1.4792,1.4794,1.4788,1.4791,1.4793,0,0,0,0,0,0,1.434,1.4392,1.4398,1.4448,1.448,1.4525,1.4547,1.4556,1.459,1.4589,1.4615,1.4625,1.4668,1.4689,1.4673,1.4744,1.4737,1.4742,1.4729,1.4732,1.4734,1.4727,1.4677,0,0,0,0,0,1.4344,1.4379,1.4422,1.4461,1.4477,1.4509,1.4531,1.4545,1.458,1.4593,1.4622,1.4654,1.4689,1.4712,1.4746,1.4793,1.4801,1.4811,1.4813,1.4814,1.4818,1.4842,1.4846,1.4803,1.4803,1.4803,0,0,1.4351,1.4384,1.4404,1.446,1.4487,1.4521,1.4521,1.4558,1.4583,1.4599,1.4643,1.4665,1.4702,1.4748,1.4769,1.4767,1.4831,1.4817,1.4818,1.4821,1.4844,1.4848,1.4852,1.4804,1.4804,1.4804,0,0,1.4382,1.4411,1.4446,1.4473,1.4513,1.4534,1.4542,1.4585,1.46,1.4645,1.4657,1.4687,1.4747,1.4773,1.4794,1.4832,1.4839,1.4843,1.4853,1.4876,1.488,1.4883,1.4895,1.4899,1.4846,1.4846,1.4846,0,1.4385,1.4439,1.4463,1.4499,1.4522,1.4538,1.4573,1.4597,1.4647,1.4662,1.4659,1.4733,1.476,1.481,1.4819,1.4837,1.4846,1.4838,1.4877,1.4881,1.4884,1.4896,1.49,1.4846,1.4846,1.4846,1.4846,0,1.444,1.4477,1.45,1.4548,1.4574,1.4609,1.4637,1.466,1.4672,1.4692,1.4736,1.4769,1.4809,1.4822,1.4835,1.4874,1.4871,1.4872,1.4866,1.4888,1.4899,1.4904,1.4846,1.4846,1.4846,1.4846,0,0,1.4467,1.4526,1.4534,1.4555,1.46,1.4628,1.4663,1.4703,1.4721,1.4755,1.4783,1.4833,1.4834,1.4858,1.4873,1.4893,1.4919,1.4892,1.4893,1.4894,1.4962,1.496,1.4965,1.4924,1.4925,1.4926,1.4959,0,1.4501,1.4566,1.4587,1.464,1.4673,1.4687,1.4718,1.4748,1.4768,1.4797,1.4819,1.4853,1.4853,1.4867,1.4888,1.4911,1.4933,1.4909,1.495,1.4951,1.4939,1.4972,1.497,1.5,1.4964,1.4964,1.4965,0,1.4551,1.4585,1.464,1.468,1.4694,1.4721,1.4758,1.4787,1.4821,1.4834,1.486,1.4873,1.4908,1.49,1.4948,1.4932,1.4949,1.4963,1.4965,1.4969,1.4959,1.4975,1.501,1.5014,1.4973,1.4972,1.4971,0,1.4562,1.4622,1.4662,1.468,1.4727,1.4745,1.4766,1.4799,1.4821,1.4853,1.4867,1.4903,1.4922,1.4949,1.497,1.4963,1.5016,1.501,1.5027,1.5026,1.5037,1.5036,1.5074,1.505,1.505,1.505,1.505,0,1.4598,1.4631,1.4668,1.4693,1.4729,1.4753,1.4789,1.481,1.4839,1.4867,1.4882,1.4908,1.4935,1.4964,1.4981,1.5018,1.5027,1.5037,1.5041,1.5035,1.5034,1.5046,1.5045,1.5051,1.5051,1.5051,1.505,0,1.4617,1.4643,1.4688,1.4729,1.474,1.4765,1.4799,1.4823,1.4843,1.4878,1.4888,1.4919,1.4954,1.4978,1.5023,1.5035,1.5073,1.5078,1.5062,1.5064,1.5078,1.5076,1.5125,1.5132,1.5105,1.5105,1.5105,0,1.4638,1.4664,1.4707,1.4727,1.4748,1.478,1.4802,1.4826,1.4848,1.4888,1.4906,1.4942,1.4972,1.5026,1.5053,1.5086,1.5091,1.5106,1.5096,1.5089,1.5089,1.5087,1.5089,1.5107,1.5107,1.5107,1.5107,0,1.4671,1.4683,1.4715,1.4751,1.4777,1.4806,1.4835,1.4851,1.4879,1.4903,1.4939,1.4962,1.5007,1.5042,1.5078,1.5098,1.5107,1.511,1.5115,1.5109,1.5099,1.5103,1.5065,1.5109,1.5109,1.5109,1.5108,1.5108,1.4691,1.4714,1.4748,1.4782,1.4807,1.4833,1.4857,1.488,1.491,1.4949,1.4961,1.4998,1.5029,1.5079,1.5099,1.5127,1.5126,1.5134,1.5136,1.5137,1.5136,1.5095,1.5134,1.5134,1.5134,1.5134,1.5134,0,1.4724,1.4746,1.4778,1.4818,1.4845,1.4851,1.4884,1.4905,1.4937,1.4966,1.4995,1.5035,1.5068,1.5097,1.5131,1.5148,1.5152,1.5156,1.5154,1.5158,1.5136,1.5127,1.5151,1.5151,1.5151,1.5151,1.5151,1.5151,1.4744,1.4782,1.4797,1.4847,1.4869,1.4905,1.4923,1.4947,1.497,1.5014,1.5042,1.506,1.5088,1.5125,1.5155,1.5162,1.5173,1.5176,1.5184,1.5162,1.516,1.5158,1.515,1.5178,1.5178,1.5204,1.5204,1.5204]},{"header":{"parameterUnit":"m.s-1","parameterCategory":1,"la1":30.2991,"la2":30.254,"lo1":-89.0895,"lo2":-89.0444,"dy":0.0017,"dx":0.0017,"nx":28,"ny":28,"refTime":"2023-07-28T03:00:00:Z","depth":0,"parameterNumber":3,"parameterNumberName":"V-component_of_WINDS"},"data":[0,0,0,0,0,0,0,0,0,0,0,0,0,0,0,0,0,0,0,0,0,0,0,0,0,0,0,0,0,0,0,0,0,0,0,0,0,0,0,0,0,0,0,0,0,0,0,0,0,0,0,0,0,0,0,0,0,0,3.7944,3.7944,0,3.7907,3.7907,3.7906,3.7814,3.7812,3.781,3.7808,3.7771,3.7772,3.7772,0,0,0,0,0,0,0,0,0,0,0,0,0,3.7936,3.7936,3.7944,3.7944,3.7943,3.7907,3.7907,3.7906,3.7814,3.7812,3.781,3.7807,3.7771,3.7771,3.7772,0,0,0,0,0,0,0,0,0,0,0,0,0,3.7923,3.7937,3.7944,3.7893,3.7888,3.7907,3.7907,3.7906,3.7815,3.7812,3.7809,3.7806,3.777,3.7771,3.7773,3.7839,0,0,3.7776,3.7777,0,0,0,0,0,0,0,0,3.7924,3.7924,3.7901,3.7897,3.7891,3.7862,3.789,3.7883,3.7815,3.7843,3.7808,3.7805,3.7804,3.7802,3.7801,3.7837,3.7835,3.7776,3.7777,3.7778,3.7778,0,0,0,0,0,0,0,3.7925,3.7925,3.793,3.7901,3.7895,3.7872,3.7867,3.7888,3.784,3.784,3.7833,3.783,3.78,3.78,3.78,3.7835,3.7776,3.7778,3.7778,3.7779,3.792,3.7923,0,0,0,0,0,0,3.7933,3.7926,3.7931,3.7928,3.7901,3.7875,3.7869,3.7874,3.7839,3.7831,3.7833,3.7826,3.78,3.7798,3.7798,3.7871,3.7778,3.7779,3.778,3.7917,3.7921,3.7924,0,0,0,0,0,0,3.7933,3.7935,3.7932,3.7925,3.7923,3.7878,3.7885,3.7875,3.7875,3.7834,3.7825,3.7842,3.7797,3.7796,3.7829,3.7868,3.7779,3.7781,3.7913,3.7918,3.7922,3.8019,0,0,0,0,0,0,3.7934,3.7935,3.796,3.7927,3.7924,3.7964,3.7887,3.7877,3.7877,3.7868,3.784,3.7832,3.7795,3.7827,3.783,3.7868,3.7781,3.791,3.7915,3.7921,3.8012,3.8026,3.8038,0,0,0,0,0,3.7934,3.7989,3.7962,3.7963,3.7954,3.7966,3.7965,3.792,3.7881,3.7905,3.7878,3.7833,3.7864,3.7831,3.7833,3.7873,3.7907,3.7914,3.792,3.8006,3.8023,3.8038,0,0,0,0,0,0,3.8029,3.7984,3.7953,3.7999,3.7987,3.7951,3.798,3.7941,3.794,3.7931,3.7877,3.7871,3.791,3.7895,3.7859,3.7934,3.7878,3.7886,3.7942,3.7958,3.7971,3.7973,3.7783,0,0,0,0,0,3.8055,3.8069,3.8029,3.8074,3.8069,3.8026,3.803,3.7997,3.7982,3.7976,3.7952,3.794,3.7946,3.7952,3.7956,3.801,3.8001,3.8038,3.8051,3.8062,3.8069,3.8094,3.8109,3.7946,3.7946,3.7946,0,0,3.811,3.8087,3.8099,3.8092,3.8079,3.8094,3.8022,3.8042,3.8052,3.7979,3.8007,3.799,3.7972,3.8015,3.8032,3.8003,3.8112,3.8071,3.808,3.808,3.8103,3.8118,3.8132,3.7951,3.795,3.7949,0,0,3.8217,3.8202,3.8236,3.8224,3.8205,3.8175,3.8184,3.8153,3.8138,3.8165,3.8111,3.8122,3.8135,3.8124,3.8121,3.8222,3.818,3.8226,3.8294,3.8319,3.8332,3.8343,3.8377,3.8391,3.8233,3.8233,3.8233,0,3.8287,3.8307,3.8259,3.8281,3.8279,3.8214,3.8248,3.8239,3.8222,3.8222,3.819,3.8204,3.8187,3.8226,3.825,3.825,3.8257,3.8228,3.8334,3.8345,3.8354,3.8386,3.84,3.8238,3.8238,3.8237,3.8237,0,3.8394,3.8409,3.8439,3.8423,3.8425,3.8453,3.8409,3.8416,3.8383,3.8357,3.8385,3.8363,3.8361,3.8368,3.8336,3.8401,3.8384,3.8344,3.8286,3.8376,3.8405,3.8417,3.8246,3.8244,3.8243,3.8241,0,0,3.8559,3.8515,3.8527,3.8518,3.8492,3.8502,3.8527,3.8524,3.8531,3.8522,3.854,3.8552,3.8515,3.8511,3.8477,3.85,3.8579,3.8456,3.8455,3.8478,3.8647,3.8676,3.8691,3.8552,3.8554,3.8556,3.8648,0,3.8657,3.8697,3.8654,3.8702,3.8714,3.8652,3.8674,3.866,3.8636,3.8643,3.8617,3.8625,3.8576,3.8573,3.8593,3.8565,3.8612,3.8558,3.8567,3.8568,3.8572,3.8707,3.8738,3.8826,3.8659,3.8661,3.8663,0,3.8777,3.8772,3.8822,3.879,3.8794,3.8814,3.8807,3.8815,3.8797,3.8778,3.8773,3.8733,3.8754,3.8699,3.8727,3.8692,3.8693,3.8681,3.8683,3.868,3.862,3.8706,3.8853,3.8866,3.8681,3.8679,3.8678,0,3.889,3.8896,3.8926,3.8921,3.8886,3.8901,3.8887,3.8866,3.8867,3.8861,3.886,3.8858,3.8856,3.8855,3.8814,3.8778,3.8847,3.8789,3.883,3.8831,3.8846,3.8846,3.8994,3.8851,3.8851,3.885,3.885,0,3.9003,3.9036,3.8975,3.8994,3.9027,3.8978,3.9013,3.8993,3.8975,3.8988,3.8935,3.8948,3.8894,3.8901,3.887,3.8897,3.8897,3.8882,3.8873,3.8885,3.8887,3.8884,3.8876,3.8854,3.8853,3.8852,3.8852,0,3.9134,3.9096,3.9124,3.9088,3.908,3.9106,3.9075,3.909,3.9063,3.908,3.9081,3.9038,3.9044,3.9003,3.9002,3.8981,3.9022,3.9003,3.9028,3.9021,3.9064,3.906,3.9214,3.9231,3.908,3.9081,3.9082,0,3.9208,3.9231,3.9198,3.9202,3.9191,3.9199,3.9199,3.9151,3.9153,3.9134,3.9151,3.9152,3.9151,3.9162,3.9131,3.9129,3.9109,3.9163,3.9108,3.912,3.9107,3.9106,3.9107,3.9174,3.9176,3.9178,3.9179,0,3.9343,3.9322,3.9324,3.9319,3.932,3.9314,3.9304,3.9311,3.9259,3.9264,3.9269,3.9267,3.9265,3.9266,3.9258,3.9243,3.9202,3.9197,3.9206,3.9218,3.923,3.9222,3.9057,3.9193,3.9191,3.919,3.919,3.9189,3.9446,3.9463,3.9441,3.9444,3.9432,3.9424,3.9436,3.941,3.9413,3.9407,3.9379,3.9388,3.9369,3.9353,3.9343,3.9349,3.9323,3.9337,3.934,3.9344,3.935,3.9231,3.9348,3.9347,3.9347,3.9346,3.9346,0,3.9576,3.9559,3.9562,3.955,3.9552,3.9514,3.9501,3.9505,3.9514,3.9499,3.9498,3.9503,3.9504,3.9473,3.947,3.9481,3.9462,3.9481,3.9479,3.9476,3.9375,3.9366,3.9497,3.9497,3.9497,3.9497,3.9496,3.9496,3.9644,3.9669,3.9646,3.9665,3.9648,3.9656,3.9652,3.9644,3.9632,3.9639,3.9639,3.9619,3.9597,3.9592,3.9591,3.9581,3.9582,3.9608,3.9592,3.9498,3.9483,3.9469,3.9461,3.9609,3.9609,3.9692,3.9693,3.9693]}]]